This is the latest recevied weather packets stored in our database for station/object F1DKL-13. If no packets are shown the sender has not sent any weather packets the latest 10 day(s).
| Time | Temp. | Humidity | Pressure | Rain* | Wind** | Luminosity | Snow |
|---|---|---|---|---|---|---|---|
| 1777547408 | 26.11° C | 15% | 1024.7 hPa | 0 mm | - | - | - |
| 1777547108 | 25° C | 20% | 1024.7 hPa | 0 mm | - | - | - |
| 1777546807 | 24.44° C | 18% | 1024.7 hPa | 0 mm | - | - | - |
| 1777546508 | 24.44° C | 15% | 1024.7 hPa | 0 mm | - | - | - |
| 1777546207 | 24.44° C | 15% | 1024.7 hPa | 0 mm | - | - | - |
| 1777545908 | 24.44° C | 3% | 1024.7 hPa | 0 mm | - | - | - |
| 1777545608 | 24.44° C | 5% | 1024.7 hPa | 0 mm | - | - | - |
| 1777545308 | 25° C | 3% | 1024.7 hPa | 0 mm | - | - | - |
| 1777545007 | 25° C | 18% | 1024.7 hPa | 0 mm | - | - | - |
| 1777544707 | 25° C | 24% | 1024.7 hPa | 0 mm | - | - | - |
| 1777544407 | 25° C | 25% | 1024.7 hPa | 0 mm | - | - | - |
| 1777544107 | 24.44° C | 31% | 1024.7 hPa | 0 mm | - | - | - |
| 1777543807 | 23.33° C | 33% | 1024.7 hPa | 0 mm | - | - | - |
| 1777543507 | 22.78° C | 33% | 1024.7 hPa | 0 mm | - | - | - |
| 1777543207 | 21.67° C | 36% | 1024.7 hPa | 0 mm | - | - | - |
| 1777542908 | 21.67° C | 40% | 1024.7 hPa | 0 mm | - | - | - |
| 1777542607 | 21.11° C | 41% | 1024.7 hPa | 0 mm | - | - | - |
| 1777542307 | 20° C | 40% | 1024.7 hPa | 0 mm | - | - | - |
| 1777542008 | 19.44° C | 44% | 1025.8 hPa | 0 mm | - | - | - |
| 1777541708 | 19.44° C | 44% | 1025.8 hPa | 0 mm | - | - | - |
| 1777541407 | 19.44° C | 46% | 1025.8 hPa | 0 mm | - | - | - |
| 1777541107 | 18.89° C | 47% | 1025.8 hPa | 0 mm | - | - | - |
| 1777540807 | 18.89° C | 49% | 1025.8 hPa | 0 mm | - | - | - |
| 1777540507 | 18.33° C | 49% | 1025.8 hPa | 0 mm | - | - | - |
| 1777540208 | 17.78° C | 52% | 1024.7 hPa | 0 mm | - | - | - |
* Rain latest hour (hover to see other rain measurements)
** Current wind speed in m/s (hover to see current wind gust speed)